Volver al catálogo

STARLINK-5783

ActivoComunicacionesVLEO
NORAD 56022·PAYLOAD·🇺🇸 United States

Lanzado Mar 24, 2023 desde Cape Canaveral Space Force Station

Loading…

Próximos Pases (próximas 24 horas)

TLE

ActualizadoSource: CelesTrak SupGP

Época: Sep 15, 2026, 02:13 UTC

1 56022C 23042AN  26258.09284722 -.00020373  00000+0 -73796-3 0  2582
2 56022  43.0016  55.1991 0001659 254.2737 213.4234 15.27586488    16

Sigue STARLINK-5783 en tiempo real con AllMySat

Download on the App Store